Regional Weather Roundup
Issued by NWS Albany, NY

Home | Current Version | Previous Version | Text Only | Print | Product List | Glossary On
Versions: 1 2 3 4 5 6 7 8 9 10 11 12 13 14 15 16 17 18 19 20 21 22 23 24 25 26 27 28 29 30 31 32 33 34 35 36 37 38 39 40 41 42 43 44 45 46 47 48 49 50
000
ASUS41 KALY 270810
RWRALY

NEW YORK STATE HOURLY WEATHER ROUNDUP
NATIONAL WEATHER SERVICE ALBANY NY
400 AM EDT FRI APR 27 2018

NOTE: "FAIR" INDICATES FEW OR NO CLOUDS BELOW 12,000 FEET WITH NO
SIGNIFICANT WEATHER AND/OR NO OBSTRUCTIONS TO VISIBILITY.

NYZ032-033-038>043-046>054-057>066-NYZ062>081-082-084-270900-
EAST


CITY           SKY/WX    TMP DP  RH WIND       PRES   REMARKS
ALBANY         MOCLDY    39  36  89 CALM      29.88S
GLENS FALLS    FAIR      39  38  96 S5        29.86S
POUGHKEEPSIE   FAIR      45  41  86 CALM      29.87S
NEWBURGH       CLEAR     46  45  93 CALM      29.88S
MONTGOMERY     FAIR      45  41  86 N3        29.86S
WHITE PLAINS   FAIR      51  40  65 E3        29.86S
ISLIP          FAIR      50  47  89 E3        29.87S
NEW YORK CITY  MOCLDY    54  43  66 NE6       29.85S
CENTRAL PARK   FAIR      58  40  51 SE5       29.88S
$$

NYZ005>009-017-018-044>046-055-056-270900-
CENTRAL


CITY           SKY/WX    TMP DP  RH WIND       PRES   REMARKS
FULTON         FAIR      37  35  92 SE6       29.84R WCI  32
SYRACUSE       FAIR      36  36 100 E6        29.84S WCI  31
ROME           FAIR      34  33  96 SE6       29.87S WCI  29
ELMIRA         FAIR      39  36  89 CALM      29.83F
BINGHAMTON     FAIR      44  33  65 E5        29.82F
MONTICELLO     FAIR      40  38  93 NE3       29.87
$$

NYZ026>034-041>043-087-270900-
NORTH


CITY           SKY/WX    TMP DP  RH WIND       PRES   REMARKS
WATERTOWN      FAIR      39  35  86 S3        29.83S
FORT DRUM      NOT AVBL
OGDENSBURG     FAIR      38  36  92 S3        29.82R
MASSENA        FAIR      41  37  86 S7        29.82F
SARANAC LAKE   FOG       31  31 100 CALM      29.81S VSB 1/2
PLATTSBURGH    FAIR      44  41  89 CALM      29.82F
$$

NYZ001>004-010>016-019>021-085-270900-
WEST


CITY           SKY/WX    TMP DP  RH WIND       PRES   REMARKS
NIAGARA FALLS  FAIR      38  32  79 CALM      29.81S
BUFFALO        MOCLDY    39  32  76 CALM      29.81S
DUNKIRK        FAIR      35  33  92 CALM      29.80F
JAMESTOWN      FAIR      40  30  67 CALM      29.79F
WELLSVILLE     FAIR      39  31  72 SE3       29.81F
ROCHESTER      MOCLDY    39  36  89 SW3       29.82S
PENN YAN       FAIR      39  33  79 SW5       29.82F
$$

             KEY
       WCI = WIND CHILL INDEX
       VSB = VISIBILITY
       HX  = HEAT INDEX
$$



USA.gov is the U.S. government's official web portal to all federal, state and local government web resources and services.